sat.trackr.live / text

‹ back to catalog

STARLINK-11500 [DTC]

NORAD 62472 · 2024-254L

PAYLOAD ACTIVE UNKNOWN

§ Identity

Operator
Country
US
Launch date
2024-12-31
Launch site
AFETR
Launch vehicle
Mass (kg)
RCS (m²)

Purposes: comms

External: N2YO · Heavens-Above · Gunter

§ Orbital elements

Epoch: 2026-09-21T00:17:57.833088Z

Period
91.67 min
Inclination
43.0043°
Eccentricity
0.0003599
Mean motion
15.70879851 rev/d
Perigee alt
354.0 km
Apogee alt
358.8 km
Semi-major
6,734.5 km
B*
8.8166e-4
RAAN
125.3482°
Arg perigee
255.2223°
Mean anomaly
104.8247°
Rev number
9,959

§ Raw data

STARLINK-11500 [DTC]1 62472U 24254L   26264.01247492  .00114467  00000+0  88166-3 0  99912 62472  43.0043 125.3482 0003599 255.2223 104.8247 15.70879851 99598

JSON: /api/v1/satellites/62472 · /tle

For live sub-satellite position, see the globe view (requires WebGL).

§ Visibility from observer

Set your observer location to see the next 7 days of passes ≥ 10°. The values pass through the URL so the page stays shareable.

No JS? Fill the form by hand. The geolocation button needs JavaScript.